STARLINK-2303 (47981 NORAD) Tracking and Keplerian Element Data

This shows tracking and keplerian element data for the satellite.

Feedback or suggestion? Click here.




ElementValue
Catalog47981
NameSTARLINK-2303
Epoch Orbit1465
Epoch Day170.24490677
Epoch Year2021
RAAN157.5585
Inclination53.0696
Eccentricity0.0001046
Argument of Perigee29.957
Mean Anonmoly330.1478
Mean Motion15.04771584
Decay Rate3.34E-06
L11 47981U 21024E 21170.24490677 .00000334 00000-0 42842-4 0 9992
L22 47981 53.0696 157.5585 0001046 29.9570 330.1478 15.04771584 14653

Live tracking and technical data element details for STARLINK-2303 (NORAD 47981). STARLINK-2303 can be tracked NOW for your location showing map with azimuth and elevation plus other details from your city location.

Track the satellite on the map from your city or location and see movement details for azimuth, elevation, latitude, longitude, range, height, and movement on the map or in text.







IsCatalogInMostPopularTable: catalog: 47981, numindb: 44
Update: records affected: 1



GetName: 47981 STARLINK-2303

Hit Count: updated at: Mon, 21 Jun 2021 04:34:19 GMT